Location: Ferchesar
(52.6477°N, 12.4298°E)
Time: 04:33:59
(UTC+01:00)

Explorer 7 - Pass Details

Date: 12 December 2021
Orbit: 483 x 674 km, 50.3° (Epoch: 21 January)

Event Time Altitude Azimuth Distance (km) Brightness Sun altitude
Rises 01:46:53 0° 188° (S) 2,945 - -54.5°
Reaches altitude 10° 01:50:47 10° 157° (SSE) 1,998 - -54.1°
Maximum altitude 01:52:20 12° 137° (SE) 1,876 - -53.9°
Drops below altitude 10° 01:53:52 10° 117° (ESE) 1,962 - -53.8°
Sets 01:57:36 0° 84° (E) 2,817 - -53.4°
